Location: Albany
(35.0000°S, 118.0000°E)
Time: 13:10:38
(UTC-05:00)

CZ-4B R/B - Visible Passes

Search period start: 19 February 2018 00:00
Search period end: 01 March 2018 00:00
Orbit: 488 x 655 km, 97.8° (Epoch: 18 February)

Date Brightness Start Highest point End Pass type
(mag) Time Alt. Az. Time Alt. Az. Time Alt. Az.
19 Feb 6.0 13:09:29 12° ESE 13:09:48 12° ESE 13:11:40 10° SE visible
19 Feb 3.9 14:45:38 39° SW 14:45:38 39° SW 14:48:47 10° SSW visible
20 Feb 6.0 13:11:53 13° ESE 13:12:02 13° ESE 13:14:10 10° SE visible
20 Feb 4.0 14:48:02 36° SW 14:48:02 36° SW 14:51:02 10° SSW visible
21 Feb 5.9 13:14:18 14° ESE 13:14:18 14° ESE 13:16:38 10° SE visible
21 Feb 4.1 14:50:27 33° SW 14:50:27 33° SW 14:53:18 10° SSW visible
22 Feb 5.9 13:16:42 15° ESE 13:16:42 15° ESE 13:19:05 10° SSE visible
22 Feb 4.3 14:52:52 31° SW 14:52:52 31° SW 14:55:33 10° SSW visible
23 Feb 5.9 13:19:07 16° ESE 13:19:07 16° ESE 13:21:30 10° SSE visible
23 Feb 4.4 14:55:17 28° SW 14:55:17 28° SW 14:57:48 10° SSW visible
24 Feb 5.8 13:21:33 17° ESE 13:21:33 17° ESE 13:23:54 10° SSE visible
24 Feb 4.5 14:57:43 26° SW 14:57:43 26° SW 15:00:02 10° SSW visible
25 Feb 5.8 13:23:59 17° SE 13:23:59 17° SE 13:26:18 10° SSE visible
25 Feb 4.6 15:00:09 24° SW 15:00:09 24° SW 15:02:16 10° SSW visible
26 Feb 5.8 13:26:25 18° SE 13:26:25 18° SE 13:28:41 10° SSE visible
26 Feb 4.7 15:02:35 22° SW 15:02:35 22° SW 15:04:31 10° SSW visible
27 Feb 5.7 13:28:51 18° SE 13:28:51 18° SE 13:31:03 10° SSE visible
27 Feb 4.9 15:05:01 20° SW 15:05:01 20° SW 15:06:44 10° SSW visible
28 Feb 5.7 13:31:18 19° SE 13:31:18 19° SE 13:33:24 10° SSE visible
28 Feb 5.0 15:07:28 18° SW 15:07:28 18° SW 15:08:58 10° SSW visible
